Regional Weather Roundup
Issued by NWS

Home | Current Version | Previous Version | Text Only | Print | Product List | Glossary On
Versions: 1 2 3 4 5 6 7 8 9 10 11 12 13 14 15 16 17 18 19 20 21 22 23 24 25 26 27
000
ASUS46 KSEW 202310
RWRWA

WASHINGTON REGIONAL WEATHER ROUNDUP
NATIONAL WEATHER SERVICE SEATTLE WA
400 PM PDT SUN APR 20 2014

NOTE:"FAIR" INDICATES FEW OR NO CLOUDS BELOW 12,000 FEET WITH NO
SIGNIFICANT WEATHER AND/OR OBSTRUCTIONS TO VISIBILITY.

WAZ505-507>509-210000-
SEATTLE, TACOMA, EVERETT, AND VICINITY

CITY           SKY/WX    TMP DP  RH WIND       PRES   REMARKS
EVERETT        CLOUDY    58  34  40 S10       30.22F
BOEING FIELD   PTSUNNY   61  36  39 VRB3      30.21F
RENTON         PTSUNNY   59  37  44 NW6       30.20F
SEATAC AIRPORT PTSUNNY   59  38  45 W9        30.22S
JBLM-MCCHORD   PTSUNNY   61  41  48 SW8       30.20F
PUYALLUP         N/A     61  39  44 CALM      30.20F
JBLM-FT LEWIS  PTSUNNY   60  41  49 SW2       30.20F
TACOMA NARROWS PTSUNNY   59  39  47 VRB5      30.21F
$$

WAZ001-503-506-510-514-515-210000-
NORTH INTERIOR

CITY           SKY/WX    TMP DP  RH WIND       PRES   REMARKS
BELLINGHAM     PTSUNNY   56  37  49 CALM      30.22F
FRIDAY HARBOR  PTSUNNY   56  39  53 E5        30.23F
EASTSOUND      CLOUDY    54  34  47 CALM      30.22R
PORT ANGELES   CLOUDY    52  40  63 NW7       30.22R
NAS WHIDBEY    CLOUDY    59  35  40 SE15      30.22F
BURLINGTON     SUNNY     57  37  47 SE8       30.23F
$$

WAZ020-022-039-040-504-511-512-210000-
SOUTHWEST INTERIOR

CITY           SKY/WX    TMP DP  RH WIND       PRES   REMARKS
SHELTON        CLOUDY    57  38  48 SW3       30.19F
OLYMPIA        PTSUNNY   59  39  47 SW8       30.20F
CHEHALIS       FAIR      63  41  45 SW7       30.22S
KELSO          PTSUNNY   64  41  42 SE7       30.22F
VANCOUVER      CLOUDY    64  42  44 E3        30.18F
SCAPPOOSE, OR  CLOUDY    63  42  46 CALM      30.18F
PORTLAND, OR   CLOUDY    62  41  46 NE6       30.19F
$$

WAZ021-516-517-210000-
WASHINGTON COAST

CITY           SKY/WX    TMP DP  RH WIND       PRES   REMARKS
FORKS          CLOUDY    52  48  86 SE8       30.19F FOG
HOQUIAM        PTSUNNY   55  45  68 SW14      30.21S
ASTORIA, OR    PTSUNNY   56  46  69 W14       30.20F
$$

WAZ019-023-024-040-518-519-210000-
CASCADE MOUNTAINS AND COLUMBIA GORGE

CITY           SKY/WX    TMP DP  RH WIND       PRES   REMARKS
STAMPEDE PASS  NOT AVBL
TROUTDALE, OR  CLOUDY    64  42  44 CALM      30.18F
THE DALLES, OR PTSUNNY   65  36  34 CALM      30.18F
$$

WAZ026-027-041>044-520-521-210000-
EAST SLOPES

CITY           SKY/WX    TMP DP  RH WIND       PRES   REMARKS
OMAK           PTSUNNY   63  22  20 S15G26    30.17F
WENATCHEE      PTSUNNY   65  22  19 SE15      30.15F
ELLENSBURG     PTSUNNY   62  27  26 E5        30.18F
YAKIMA         PTSUNNY   64  31  28 SE7       30.18F
$$

WAZ028-034-035-210000-
COLUMBIA BASIN

CITY           SKY/WX    TMP DP  RH WIND       PRES   REMARKS
EPHRATA        MOSUNNY   62  27  26 S10       30.19S
MOSES LAKE     MOSUNNY   62  27  26 S5G18     30.21F
HANFORD        NOT AVBL
PASCO          MOSUNNY   66  27  23 SW7       30.20F
HERMISTON, OR  MOSUNNY   66  34  30 VRB3      30.18F
$$

WAZ036>038-210000-
NORTHEAST WASHINGTON

CITY           SKY/WX    TMP DP  RH WIND       PRES   REMARKS
SPOKANE GEIGER CLOUDY    55  28  35 S9        30.23F
SPOKANE FELTS  SUNNY     58  27  30 S12       30.24F
FAIRCHILD AFB  MOSUNNY   54  29  38 S7        30.23F
COEURDALENE,ID PTSUNNY   55  28  35 SW10      30.24F
DEER PARK      MOSUNNY   56  29  35 S12       30.24F
$$

WAZ029>033-210000-
SOUTHEAST WASHINGTON

CITY           SKY/WX    TMP DP  RH WIND       PRES   REMARKS
PULLMAN        SUNNY     58  30  34 SW5       30.25F
LEWISTON, ID   SUNNY     64  23  21 VRB5      30.22F
WALLA WALLA    MOSUNNY   64  37  36 N7        30.21F
PENDLETON, OR  SUNNY     64  31  28 CALM      30.19F
$$



USA.gov is the U.S. government's official web portal to all federal, state and local government web resources and services.